Regional Weather Roundup
Issued by NWS Upton, NY

Current Version | Previous Version | Graphics & Text | Print | Product List | Glossary Off
Versions: 1 2 3 4 5 6 7 8 9 10 11 12 13 14 15 16 17 18 19 20 21 22 23 24 25 26 27

000
ASUS41 KOKX 030804
RWROKX

REGIONAL WEATHER ROUNDUP
NATIONAL WEATHER SERVICE NEW YORK NY
400 AM EDT TUE MAY 03 2016

NOTE: "FAIR" INDICATES FEW OR NO CLOUDS BELOW 12,000 FEET WITH NO
SIGNIFICANT WEATHER AND/OR OBSTRUCTIONS TO VISIBILITY.

NYZ071-072-176-178-NJZ106-104-030900-
NEW YORK CITY METRO AREA


CITY           SKY/WX    TMP DP  RH WIND       PRES   REMARKS
CENTRAL PARK   LGT RAIN  53  51  93 E5        29.89F FOG
LAGUARDIA APRT LGT RAIN  54  51  90 NE6       29.87S FOG
KENNEDY INTL   LGT RAIN  53  52  96 NE7       29.87F FOG
NEWARK/LIBERTY RAIN      54  54 100 E3        29.86F FOG
BRNX BOT. GARD   N/A     52  52 100 NE1       29.88F
TETERBORO      RAIN      54  51  90 NE5       29.85F FOG
$$

NYZ177-179-078>081-030900-
LONG ISLAND NEW YORK

CITY           SKY/WX    TMP DP  RH WIND       PRES   REMARKS
FARMINGDALE    LGT RAIN  52  50  93 E6        29.86F FOG
ISLIP          NOT AVBL
SHIRLEY        RAIN      51  49  92 VRB3      29.88F FOG
RIVERHEAD        N/A     50  48  93 CALM      29.90S
WESTHAMPTON    LGT RAIN  46  32  58 CALM      29.91F
EAST HAMPTON   CLOUDY    48  48  97 NE3       29.91F FOG
MONTAUK POINT    N/A     50  49  96 NE3       29.92F
$$

NYZ052-065-067-030900-
HUDSON VALLEY

CITY           SKY/WX    TMP DP  RH WIND       PRES   REMARKS
WHITE PLAINS   LGT RAIN  52  51  97 E5        29.88S FOG
NEWBURGH       NOT AVBL
MONTGOMERY     LGT RAIN  51  49  92 CALM      29.88S
POUGHKEEPSIE   LGT RAIN  52  48  86 E5        29.88F
ALBANY         CLOUDY    47  44  90 N6        29.93S
$$

NJZ001-105-106-008-010-013-015-019>022-104-030900-
NEW JERSEY

CITY           SKY/WX    TMP DP  RH WIND       PRES   REMARKS
NEWARK/LIBERTY RAIN      54  54 100 E3        29.86F FOG
TETERBORO      RAIN      54  51  90 NE5       29.85F FOG
CALDWELL       RAIN      54  52  93 NE6       29.86F FOG
MORRISTOWN     RAIN      54  52  94 NE3       29.86F
SOMERVILLE     RAIN      55  53  93 N3        29.84S FOG
SUSSEX         RAIN      52  49  89 NE3       29.88F FOG
ANDOVER          N/A     51  50  96 VRB3      29.87S
TRENTON        RAIN      55  54  96 NE3       29.84R FOG
MILLVILLE      CLOUDY    56  55  97 E9        29.82S
ATLANTIC CITY  CLOUDY    55  54  96 E6        29.84R
WRIGHTSTOWN    LGT RAIN  54  54 100 E6        29.81S
TOMS RIVER     CLOUDY    54  50  87 E3        29.84F
BELMAR         LGT RAIN  53  52  96 E10       29.84F FOG
$$

PAZ047>061-062-071-030900-
EASTERN PENNSYLVANIA

CITY           SKY/WX    TMP DP  RH WIND       PRES   REMARKS
PHILADELPHIA   RAIN      57  54  89 E10       29.84S
ALLENTOWN      LGT RAIN  53  50  89 NE8       29.86R
SCRANTON       LGT RAIN  49  47  93 CALM      29.86F FOG
$$

CTZ002-004>006-009-010-012-RIZ004-006-007-MAZ004-011-015-030900-
SOUTHERN NEW ENGLAND
 IN CT

CITY           SKY/WX    TMP DP  RH WIND       PRES   REMARKS
BRADLEY INTL   LGT RAIN  48  46  93 CALM      29.90F
HARTFORD       LGT RAIN  51  48  89 SE5       29.92R FOG
DANBURY        RAIN      50  48  93 CALM      29.91S
WTRBRY/OXFORD    N/A     48  45  87 CALM      29.90F
BRIDGEPORT     LGT RAIN  52  51  97 NE6       29.89F FOG
MERIDEN        RAIN      50  48  93 CALM      29.90F FOG
NEW HAVEN      LGT RAIN  50  49  96 NE3       29.90F FOG
CHESTER        LGT RAIN  50  48  93 CALM      29.91F
GROTON         LGT RAIN  50  50 100 NE6       29.92R FOG
WILLIMANTIC    LGT RAIN  48  46  93 S3        29.93R FOG

 IN RI

CITY           SKY/WX    TMP DP  RH WIND       PRES   REMARKS
PROVIDENCE     CLOUDY    50  44  80 CALM      29.94R
BLOCK ISLAND   CLOUDY    47  47 100 N3        29.93R
WESTERLY       CLOUDY    49  46  90 CALM      29.94R FOG

 IN MA

CITY           SKY/WX    TMP DP  RH WIND       PRES   REMARKS
BOSTON         PTCLDY    46  43  89 N6        29.92S
WORCESTER      LGT RAIN  44  43  96 SE5       29.89F
WESTFIELD      LGT RAIN  47  45  93 CALM      29.90F
PROVINCETOWN   MOCLDY    45  42  89 N8        29.90F
NANTUCKET      CLOUDY    48  44  86 N3        29.92S
$$

ANZ330-335-338-340-345-350-353-355-030900-
COASTAL MARINE OBSERVATIONS


STATION/POSITION TIME  SKY/WX   TEMP    WIND        PRES    VSBY  WAVE
                                AIR SEA DIR/SP/G                  HT/PER
                 (UTC)          (F)     (DEG/KT/KT) (MB)    (MI)  (FT/S)
NY HARB ENTRANCE 0650            52 51   80/  6/  8 1011.5          3/ 6
20S FIRE ISLAND  0650            50 49  140/  8/ 10 1011.9          4/ 9
GREAT SOUTH BAY  0700            52 56  180/  6/  6   N/A
23 SSW MONTAUK P 0750            48 47   50/  4/  6 1011.7          4/ 7
15 E BARNEGAT LI 0722               51                N/A           3/ 9
HUDSON CANYON    0650            51 50              1012.1          4/ 9
KINGS POINT      0700            52 54              1011.6
EXECUTION ROCKS  NOT AVBL
CENTRAL LI SOUND 0700            50     290/  4/  4   N/A           0
EASTERN LI SOUND 0700            49 48  350/  2/  4   N/A
ROBBINS REEF     0700            54     110/  8/  9 1010.9
$$


>>>>>>>>>>>>>>>>>>>>>>>>>>>> KEY <<<<<<<<<<<<<<<<<<<<<<<<<<<
>                                                          <
>     SKY/WX - SKY CONDITION/PRESENT WEATHER               <
>     TMP    - TEMPERATURE IN FAHRENHEIT                   <
>     DP     - DEWPOINT IN FAHRENHEIT                      <
>     RH     - RELATIVE HUMIDITY IN PERCENT                <
>     WIND   - DIRECTION AND SPEED IN MPH                  <
>     PRES   - MEAN SEA LEVEL PRESSURE IN INCHES OF HG     <
>     WCI    - WIND CHILL INDEX                            <
>     VSB    - VISIBILITY IN MILES                         <
>     HX     - HEAT INDEX                                  <
>     TC     - TEMPERATURE IN CELSIUS                      <
>     VRB    - VARIABLE WIND DIRECTION                     <
>                                                          <
>>>>>>>>>>>>>>>>>>>>>>>>>>>> KEY <<<<<<<<<<<<<<<<<<<<<<<<<<<






USA.gov is the U.S. government's official web portal to all federal, state and local government web resources and services.